Tracking 35237 objects as of 6-Sep-2026
HD Live streaming from Space Station
objects crossing your sky now

SL-16 DEB


SL-16 DEB is no longer on orbit


NORAD ID: 25905
Int'l Code: 1995-058J
Launch date: October 31, 1995
Source: Commonwealth of Independent States (former USSR) (CIS)
Launch site: TYURATAM MISSILE AND SPACE COMPLEX (TTMTR)
Decay date: 2000-03-09

Note: This is SATELLITE DEBRIS
Your satellite tracking list
Your tracking list is empty




NASA's NSSDC Master Catalog

Two Line Element Set (TLE):
1 25905U 95058J   00067.49386155  .07085120  00000-0  13660+0 0  9990
2 25905 070.9449 230.3457 0031921 330.6408 042.3265 15.42098390125731
Source of the keplerian elements: AFSPC